Location: Grand Rapids
(42.9630°N, 85.6680°W)
Time: 03:28:08
(UTC-04:00)

A-11 Canister half - Pass Details

Date: 05 June 2024
Orbit: 1524 x 1684 km, 47.3° (Epoch: 21 June)

Event Time Altitude Azimuth Distance (km) Brightness Sun altitude
Rises 23:47:03 0° 291° (WNW) 4,693 12.3 -19.3°
Reaches altitude 10° 23:50:04 10° 292° (WNW) 3,721 11.7 -19.5°
Maximum altitude 23:59:31 90° 213° (SSW) 1,577 9.0 -20.3°
Enters shadow 00:07:25 18° 115° (ESE) 3,247 10.3 -20.9°
Drops below altitude 10° 00:09:17 10° 115° (ESE) 3,830 - -21.0°
Sets 00:12:26 0° 116° (ESE) 4,836 - -21.2°
